User: anonymous   Login
Location: Wien
(48.2082°N, 16.3738°E)
Time: 08:52:24
(UTC+01:00)
Language:

SR - Orbit

View from above orbital plane
View from above orbital plane
View from above satellite
View from above satellite

Ground track
Ground track

The orbit data is extracted from the following two-line orbital elements,

1 00046U 60007B   24055.59016378  .00001039  00000-0  21842-3 0  9991
2 00046  66.6914   3.0602 0207252 207.9173 151.0696 14.51485480334404
Epoch (UTC): 24 February 2024 14:09:50
Eccentricity: 0.0207252
inclination: 66.6914°
perigee height: 573 km
apogee height: 868 km
right ascension of ascending node: 3.0602°
argument of perigee: 207.9173°
revolutions per day: 14.51485480
mean anomaly at epoch: 151.0696°
orbit number at epoch: 33440

The dashed part of the orbit path shows where the satellite is in the earth's shadow,  

DLR